Location: Newark
(54.8972°N, 99.8189°W)
Time: 23:42:43
(UTC+00:00)

Transit 2A - Pass Details

Date: 22 November 2019
Orbit: 602 x 957 km, 66.7° (Epoch: 06 December)

Event Time Altitude Azimuth Distance (km) Brightness Sun altitude
Rises 02:06:56 0° 317° (NW) 2,878 9.7 -30.8°
Reaches altitude 10° 02:09:12 10° 316° (NW) 1,960 8.7 -31.1°
Enters shadow 02:11:06 26° 314° (NW) 1,218 7.5 -31.4°
